Syracuse, NY

8:44 AM EDT on September 26, 2017 (GMT -0400)
Syracuse Hancock International

Weather History for KSYR - June, 2014

Change the Weather History Date:

Saturday, June 7, 2014

  Actual Average Record
Temperature  
Mean Temperature 67 °F 64 °F  
Max Temperature 82 °F 75 °F 94 °F (1999)
Min Temperature 52 °F 54 °F 40 °F (1939)
Degree Days  
Heating Degree Days 0 3  
Month to date heating degree days 8 26  
Since 1 June heating degree days 8 26  
Since 1 July heating degree days 7064 6616  
Cooling Degree Days 2 3  
Month to date cooling degree days 22 15  
Year to date cooling degree days 78 45  
Since 1 June cooling degree days 22 15  
Growing Degree Days 17 (Base 50)    
Moisture  
Dew Point 50 °F    
Average Humidity 59    
Maximum Humidity 89    
Minimum Humidity 28    
Precipitation  
Precipitation 0.00 in 0.11 in 0.92 in (1935)
Month to date precipitation 0.14 0.76  
Year to date precipitation 17.52 14.69  
Snow  
Snow 0.00 in 0.00 in 0.00 in (2002)
Month to date snowfall 0.0 0.0  
Since 1 June snowfall 0.0 0.0  
Since 1 July snowfall 132.0 123.8  
Snow Depth 0.00 in    
Sea Level Pressure  
Sea Level Pressure 29.99 in    
Wind  
Wind Speed 4 mph (NW)    
Max Wind Speed 13 mph    
Max Gust Speed 17 mph    
Visibility 10 miles    
Events      
T = Trace of Precipitation, MM = Missing Value Source: NWS Daily Summary

Daily Weather History Graph

Daily Weather History Graph

Search for Another Location

Airport or City:

Trip Planner

Search our weather history database for the weather conditions in past years. The results will help you decide how hot, cold, wet, or windy it might be!

Date:

Astronomy

Jun. 07, 2014 Rise Set
Actual Time 5:25 AM EDT 8:41 PM EDT
Civil Twilight 4:50 AM EDT 9:16 PM EDT
Nautical Twilight 4:05 AM EDT 10:02 PM EDT
Astronomical Twilight 3:09 AM EDT 10:57 PM EDT
Moon 2:48 PM EDT (6/7) 1:55 AM EDT (6/7)
Length of Visible Light 16h 26m
Length of Day
15h 16m
Waxing Gibbous, 67% of the Moon is Illuminated
Jun 7
Waxing Gibbous
Jun 13
Full
Jun 19
Last Quarter
Jun 27
New
Jul 5
First Quarter

Hourly Weather History & Observations

Time (EDT) Temp. Dew Point Humidity Pressure Visibility Wind Dir Wind Speed Gust Speed Precip Events Conditions
12:54 AM 55.9 °F 51.1 °F 84% 29.99 in 10.0 mi ESE 3.5 mph - N/A   Scattered Clouds
1:54 AM 55.9 °F 51.1 °F 84% 29.99 in 10.0 mi Calm Calm - N/A   Scattered Clouds
2:54 AM 54.0 °F 50.0 °F 86% 29.99 in 10.0 mi Calm Calm - N/A   Partly Cloudy
3:54 AM 55.0 °F 50.0 °F 83% 29.99 in 10.0 mi Calm Calm - N/A   Partly Cloudy
4:54 AM 54.0 °F 50.0 °F 86% 29.99 in 10.0 mi Calm Calm - N/A   Scattered Clouds
5:54 AM 53.1 °F 50.0 °F 89% 30.00 in 10.0 mi Calm Calm - N/A   Scattered Clouds
6:54 AM 57.9 °F 53.1 °F 84% 30.02 in 10.0 mi Calm Calm - N/A   Mostly Cloudy
7:54 AM 64.0 °F 51.1 °F 63% 30.04 in 10.0 mi WSW 6.9 mph - N/A   Mostly Cloudy
8:54 AM 66.9 °F 48.9 °F 52% 30.03 in 10.0 mi West 8.1 mph - N/A   Scattered Clouds
9:54 AM 70.0 °F 51.1 °F 51% 30.03 in 10.0 mi Variable 3.5 mph - N/A   Scattered Clouds
10:54 AM 72.0 °F 51.1 °F 48% 30.03 in 10.0 mi Variable 4.6 mph - N/A   Partly Cloudy
11:54 AM 75.9 °F 53.1 °F 45% 30.04 in 10.0 mi West 8.1 mph - N/A   Partly Cloudy
12:54 PM 79.0 °F 55.0 °F 44% 30.03 in 10.0 mi NNW 8.1 mph - N/A   Partly Cloudy
1:54 PM 80.1 °F 51.1 °F 36% 30.02 in 10.0 mi WNW 8.1 mph 16.1 mph N/A   Partly Cloudy
2:54 PM 80.1 °F 48.9 °F 34% 29.99 in 10.0 mi NNW 10.4 mph - N/A   Partly Cloudy
3:54 PM 80.1 °F 48.0 °F 32% 29.96 in 10.0 mi North 6.9 mph - N/A   Partly Cloudy
4:54 PM 81.0 °F 48.0 °F 31% 29.95 in 10.0 mi WNW 6.9 mph - N/A   Partly Cloudy
5:54 PM 80.1 °F 45.0 °F 29% 29.94 in 10.0 mi WNW 6.9 mph - N/A   Partly Cloudy
6:54 PM 78.1 °F 46.9 °F 33% 29.94 in 10.0 mi NW 6.9 mph - N/A   Partly Cloudy
7:54 PM 75.0 °F 46.9 °F 37% 29.95 in 10.0 mi WNW 6.9 mph - N/A   Partly Cloudy
8:54 PM 70.0 °F 46.9 °F 44% 29.96 in 10.0 mi NW 4.6 mph - N/A   Partly Cloudy
9:54 PM 66.0 °F 48.9 °F 54% 29.96 in 10.0 mi Calm Calm - N/A   Partly Cloudy
10:54 PM 62.1 °F 51.1 °F 67% 29.97 in 10.0 mi Calm Calm - N/A   Clear
11:54 PM 57.0 °F 51.1 °F 81% 29.97 in 10.0 mi Calm Calm - N/A   Partly Cloudy